Zurück zum Katalog

STARLINK-35173

AktivKommunikationVLEO
NORAD 65744·PAYLOAD·🇺🇸 United States

Gestartet Sep 25, 2025 von Cape Canaveral Space Force Station

Loading…

Nächste Überflüge (nächste 24 Stunden)

TLE

AktuellSource: CelesTrak SupGP

Epoche: Sep 15, 2026, 02:59 UTC

1 65744C 25216L   26258.12479167 -.00034906  00000+0 -10314-2 0  2584
2 65744  53.1577 170.6169 0001340  86.8090 155.7795 15.34404559    15

Verfolge STARLINK-35173 in Echtzeit mit AllMySat

Download on the App Store